Погода в Овсянке

Россия / Амурская область     53°34′34″N   126°53′56″E
темп.,
°C
ветер,
м/с
пор.,
м/с
влажн.,
%
обл.,
%
осадки,
мм/ч
давл.,
гПа
погр.,
м
18 апреля, вс
вс1800:00−2в22800 0.0 101032
03:00−3в24785 0.0 100961
06:00−3в267815 0.0 100998
09:00+4вюв466154 0.0 1007355
12:00+11юв474688 0.0 1005947
15:00+14ююв374414 0.0 10021370
18:00+10вюв49675 0.0 1000155
21:00+6юв41268100 0.0 1000216
19 апреля, пн
пн1900:00+4юв3117787 0.0 1000196
03:00+2з61188100 0.1 1003412
06:00−4сз7146689 0.6 1007773
09:00−2сз9145216 0.6 10101347
12:000сз81441100 0.0 10122082
15:00+1сз81438100 0.0 10122538
18:00−1сз7144459 0.0 10132329
21:00−3сз718475 0.0 10141969
20 апреля, вт
вт2000:00−4сз917440 0.0 10131529
03:00−5сз817440 0.0 10131262
06:00−5сз613420 0.0 10141042
09:00−1ссз69310 0.0 1015941
12:00+4сз46225 0.0 10131209
15:00+6зсз35215 0.0 10121293
18:00+5зсз12377 0.0 101360
21:000всв11445 0.0 101310
21 апреля, ср
ср2100:00−1в114853 0.0 101510
03:00−1всв2255100 0.0 101626
06:00−2в276016 0.0 1017136
09:00+5в463632 0.0 1017542
12:00+9вюв573331 0.0 10161114
15:00+13вюв58321 0.0 10131397
18:00+11в4104714 0.0 1011256
21:00+7в61459100 0.0 1012293
22 апреля, чт
чт2200:00+6в61563100 0.0 1011351
03:00+6вюв51570100 0.0 1010350
06:00+7вюв5137258 0.3 1011355
09:00+12вюв512571 0.4 1011565
12:00+18ююв58384 0.0 10111414
15:00+22ю610327 0.0 10092269
18:00+14зсз5969100 0.1 1013564
21:00+7сз4878100 0.1 1019398